Time,TemperatureF,DewpointF,PressureIn,WindDirection,WindDirectionDegrees,WindSpeedMPH,WindSpeedGustMPH,Humidity,HourlyPrecipIn,Conditions,Clouds,dailyrainin,SoftwareType,DateUTC
2013-11-05 00:01:00,59.7,20.8,29.91,WSW,248,0.0,0.0,22,0.00,,CLR,0.00,VWS V14.01,2013-11-05 08:01:00,
2013-11-05 00:06:00,59.7,20.8,29.91,SW,236,0.0,0.0,22,0.00,,CLR,0.00,VWS V14.01,2013-11-05 08:06:00,
2013-11-05 00:10:00,59.7,20.8,29.91,SW,236,0.0,0.0,22,0.00,,CLR,0.00,VWS V14.01,2013-11-05 08:10:00,
2013-11-05 00:15:00,59.7,20.8,29.91,South,176,0.0,0.0,22,0.00,,CLR,0.00,VWS V14.01,2013-11-05 08:15:00,
2013-11-05 00:20:00,59.7,20.8,29.91,NE,39,0.0,0.0,22,0.00,,CLR,0.00,VWS V14.01,2013-11-05 08:20:00,
2013-11-05 00:25:00,59.7,20.8,29.91,SW,214,0.0,0.0,22,0.00,,CLR,0.00,VWS V14.01,2013-11-05 08:25:00,
2013-11-05 00:30:00,59.7,20.8,29.91,SW,214,0.0,0.0,22,0.00,,CLR,0.00,VWS V14.01,2013-11-05 08:30:00,
2013-11-05 00:35:00,59.5,20.7,29.91,SW,236,0.0,0.0,22,0.00,,CLR,0.00,VWS V14.01,2013-11-05 08:35:00,
2013-11-05 00:40:00,59.5,20.7,29.91,ENE,65,0.0,0.0,22,0.00,,CLR,0.00,VWS V14.01,2013-11-05 08:40:00,
2013-11-05 00:45:00,59.2,20.4,29.91,NE,46,0.0,0.0,22,0.00,,CLR,0.00,VWS V14.01,2013-11-05 08:45:00,
2013-11-05 00:50:00,59.2,20.4,29.91,WSW,237,0.0,0.0,22,0.00,,CLR,0.00,VWS V14.01,2013-11-05 08:50:00,
2013-11-05 00:55:00,59.0,20.2,29.91,WSW,237,0.0,0.0,22,0.00,,CLR,0.00,VWS V14.01,2013-11-05 08:55:00,
2013-11-05 01:00:00,58.6,19.9,29.91,WSW,237,0.0,0.0,22,0.00,,CLR,0.00,VWS V14.01,2013-11-05 09:00:00,
2013-11-05 01:05:00,58.6,19.9,29.91,WSW,239,0.0,0.0,22,0.00,,CLR,0.00,VWS V14.01,2013-11-05 09:05:00,
2013-11-05 01:10:00,58.6,19.9,29.91,SW,214,0.0,0.0,22,0.00,,CLR,0.00,VWS V14.01,2013-11-05 09:10:00,
2013-11-05 01:15:00,58.6,19.9,29.91,North,4,0.0,0.0,22,0.00,,CLR,0.00,VWS V14.01,2013-11-05 09:15:00,
2013-11-05 01:20:00,58.6,19.9,29.91,North,7,0.0,0.0,22,0.00,,CLR,0.00,VWS V14.01,2013-11-05 09:20:00,
2013-11-05 01:25:00,58.6,19.9,29.91,North,7,0.0,0.0,22,0.00,,CLR,0.00,VWS V14.01,2013-11-05 09:25:00,
2013-11-05 01:30:00,59.0,20.2,29.91,SW,218,0.0,0.0,22,0.00,,CLR,0.00,VWS V14.01,2013-11-05 09:30:00,
2013-11-05 01:35:00,59.0,20.2,29.91,SW,216,0.0,0.0,22,0.00,,CLR,0.00,VWS V14.01,2013-11-05 09:35:00,
2013-11-05 01:40:00,58.8,20.1,29.91,SW,217,0.0,0.0,22,0.00,,CLR,0.00,VWS V14.01,2013-11-05 09:40:00,
2013-11-05 01:45:00,58.8,20.1,29.91,SW,221,0.0,0.0,22,0.00,,CLR,0.00,VWS V14.01,2013-11-05 09:45:00,
2013-11-05 01:50:00,59.0,20.2,29.91,SW,221,0.0,0.0,22,0.00,,CLR,0.00,VWS V14.01,2013-11-05 09:50:00,
2013-11-05 01:55:00,59.0,20.2,29.88,SW,221,0.0,0.0,22,0.00,,CLR,0.00,VWS V14.01,2013-11-05 09:55:00,
2013-11-05 02:00:00,59.0,20.2,29.88,SW,221,0.0,0.0,22,0.00,,CLR,0.00,VWS V14.01,2013-11-05 10:00:00,
2013-11-05 02:05:00,59.0,20.2,29.88,SW,221,0.0,0.0,22,0.00,,CLR,0.00,VWS V14.01,2013-11-05 10:05:00,
2013-11-05 02:10:00,58.8,20.1,29.88,SW,221,0.0,0.0,22,0.00,,CLR,0.00,VWS V14.01,2013-11-05 10:10:00,
2013-11-05 02:15:00,58.6,19.9,29.88,SW,221,0.0,0.0,22,0.00,,CLR,0.00,VWS V14.01,2013-11-05 10:15:00,
2013-11-05 02:20:00,58.5,19.8,29.88,SW,221,0.0,0.0,22,0.00,,CLR,0.00,VWS V14.01,2013-11-05 10:20:00,
2013-11-05 02:25:00,58.5,19.8,29.88,SW,221,0.0,0.0,22,0.00,,CLR,0.00,VWS V14.01,2013-11-05 10:25:00,
2013-11-05 02:30:00,58.3,19.6,29.88,SW,221,0.0,0.0,22,0.00,,CLR,0.00,VWS V14.01,2013-11-05 10:30:00,
2013-11-05 02:35:00,58.1,19.5,29.88,SW,221,0.0,0.0,22,0.00,,CLR,0.00,VWS V14.01,2013-11-05 10:35:00,
2013-11-05 02:40:00,57.7,19.2,29.88,SW,221,0.0,0.0,22,0.00,,CLR,0.00,VWS V14.01,2013-11-05 10:40:00,
2013-11-05 02:45:00,57.6,19.0,29.91,SW,221,0.0,0.0,22,0.00,,CLR,0.00,VWS V14.01,2013-11-05 10:45:00,
2013-11-05 02:50:00,57.6,19.0,29.91,SW,221,0.0,0.0,22,0.00,,CLR,0.00,VWS V14.01,2013-11-05 10:50:00,
2013-11-05 02:55:00,57.6,19.0,29.91,SW,221,0.0,0.0,22,0.00,,CLR,0.00,VWS V14.01,2013-11-05 10:55:00,
2013-11-05 03:00:00,57.0,18.6,29.91,SW,221,0.0,0.0,22,0.00,,CLR,0.00,VWS V14.01,2013-11-05 11:00:00,
2013-11-05 03:05:00,56.5,18.1,29.91,SW,221,0.0,0.0,22,0.00,,CLR,0.00,VWS V14.01,2013-11-05 11:05:00,
2013-11-05 03:10:00,56.1,17.8,29.91,SW,221,0.0,0.0,22,0.00,,CLR,0.00,VWS V14.01,2013-11-05 11:10:00,
2013-11-05 03:15:00,55.8,20.5,29.91,SW,221,0.0,0.0,25,0.00,,CLR,0.00,VWS V14.01,2013-11-05 11:15:00,
2013-11-05 03:20:00,55.8,20.5,29.91,ENE,63,0.0,0.0,25,0.00,,CLR,0.00,VWS V14.01,2013-11-05 11:20:00,
2013-11-05 03:25:00,55.2,29.4,29.91,ENE,63,0.0,0.0,37,0.00,,CLR,0.00,VWS V14.01,2013-11-05 11:25:00,
2013-11-05 03:30:00,55.2,29.4,29.91,ENE,63,0.0,0.0,37,0.00,,CLR,0.00,VWS V14.01,2013-11-05 11:30:00,
2013-11-05 03:35:00,54.7,30.2,29.91,ENE,65,0.0,0.0,39,0.00,,CLR,0.00,VWS V14.01,2013-11-05 11:35:00,
2013-11-05 03:40:00,54.5,34.7,29.94,NE,55,0.0,0.0,47,0.00,,CLR,0.00,VWS V14.01,2013-11-05 11:40:00,
2013-11-05 03:45:00,54.5,34.7,29.94,NE,55,0.0,0.0,47,0.00,,CLR,0.00,VWS V14.01,2013-11-05 11:45:00,
2013-11-05 03:50:00,54.0,33.1,29.94,NE,55,0.0,0.0,45,0.00,,CLR,0.00,VWS V14.01,2013-11-05 11:50:00,
2013-11-05 03:55:00,53.8,33.0,29.94,NE,55,0.0,0.0,45,0.00,,CLR,0.00,VWS V14.01,2013-11-05 11:55:00,
2013-11-05 04:00:00,53.8,33.0,29.94,NE,56,0.0,0.0,45,0.00,,CLR,0.00,VWS V14.01,2013-11-05 12:00:00,
2013-11-05 04:05:00,53.8,33.0,29.94,NE,55,0.0,0.0,45,0.00,,CLR,0.00,VWS V14.01,2013-11-05 12:05:00,
2013-11-05 04:10:00,53.1,32.3,29.94,NE,55,0.0,0.0,45,0.00,,CLR,0.00,VWS V14.01,2013-11-05 12:10:00,
2013-11-05 04:15:00,52.9,32.1,29.94,NE,56,0.0,0.0,45,0.00,,CLR,0.00,VWS V14.01,2013-11-05 12:15:00,
2013-11-05 04:20:00,52.7,32.0,29.94,NE,55,0.0,0.0,45,0.00,,CLR,0.00,VWS V14.01,2013-11-05 12:20:00,
2013-11-05 04:25:00,52.7,32.0,29.94,NE,55,0.0,0.0,45,0.00,,CLR,0.00,VWS V14.01,2013-11-05 12:25:00,
2013-11-05 04:30:00,52.7,32.0,29.94,NE,55,0.0,0.0,45,0.00,,CLR,0.00,VWS V14.01,2013-11-05 12:30:00,
2013-11-05 04:35:00,52.3,31.1,29.94,NE,55,0.0,0.0,44,0.00,,CLR,0.00,VWS V14.01,2013-11-05 12:35:00,
2013-11-05 04:40:00,52.3,31.1,29.94,NE,55,0.0,0.0,44,0.00,,CLR,0.00,VWS V14.01,2013-11-05 12:40:00,
2013-11-05 04:45:00,52.2,30.9,29.94,NE,55,0.0,0.0,44,0.00,,CLR,0.00,VWS V14.01,2013-11-05 12:45:00,
2013-11-05 04:50:00,52.0,30.2,29.94,NE,55,0.0,0.0,43,0.00,,CLR,0.00,VWS V14.01,2013-11-05 12:50:00,
2013-11-05 04:55:00,52.0,30.2,29.94,NE,55,0.0,0.0,43,0.00,,CLR,0.00,VWS V14.01,2013-11-05 12:55:00,
2013-11-05 05:00:00,52.2,30.4,29.94,NE,55,0.0,0.0,43,0.00,,CLR,0.00,VWS V14.01,2013-11-05 13:00:00,
2013-11-05 05:05:00,52.0,29.0,29.94,NE,55,0.0,0.0,41,0.00,,CLR,0.00,VWS V14.01,2013-11-05 13:05:00,
2013-11-05 05:10:00,52.0,29.0,29.94,NE,55,0.0,0.0,41,0.00,,CLR,0.00,VWS V14.01,2013-11-05 13:10:00,
2013-11-05 05:15:00,52.0,29.0,29.97,NE,55,0.0,0.0,41,0.00,,CLR,0.00,VWS V14.01,2013-11-05 13:15:00,
2013-11-05 05:20:00,52.2,27.3,29.97,NE,55,0.0,0.0,38,0.00,,CLR,0.00,VWS V14.01,2013-11-05 13:20:00,
2013-11-05 05:25:00,52.2,26.7,29.97,NE,55,0.0,0.0,37,0.00,,CLR,0.00,VWS V14.01,2013-11-05 13:25:00,
2013-11-05 05:30:00,51.8,26.4,29.97,NE,55,0.0,0.0,37,0.00,,CLR,0.00,VWS V14.01,2013-11-05 13:30:00,
2013-11-05 05:35:00,51.3,26.5,29.97,NE,55,0.0,0.0,38,0.00,,CLR,0.00,VWS V14.01,2013-11-05 13:35:00,
2013-11-05 05:40:00,51.1,26.4,29.97,NE,55,0.0,0.0,38,0.00,,CLR,0.00,VWS V14.01,2013-11-05 13:40:00,
2013-11-05 05:45:00,51.1,26.4,29.97,NE,55,0.0,0.0,38,0.00,,CLR,0.00,VWS V14.01,2013-11-05 13:45:00,
2013-11-05 05:50:00,51.1,26.4,29.97,NE,55,0.0,0.0,38,0.00,,CLR,0.00,VWS V14.01,2013-11-05 13:50:00,
2013-11-05 05:55:00,51.3,26.5,29.97,NE,55,0.0,0.0,38,0.00,,CLR,0.00,VWS V14.01,2013-11-05 13:55:00,
2013-11-05 06:00:00,51.1,26.4,29.97,NE,55,0.0,0.0,38,0.00,,CLR,0.00,VWS V14.01,2013-11-05 14:00:00,
2013-11-05 06:05:00,51.1,26.4,29.97,NE,55,0.0,0.0,38,0.00,,CLR,0.00,VWS V14.01,2013-11-05 14:05:00,
2013-11-05 06:10:00,51.1,26.4,29.97,NE,55,0.0,0.0,38,0.00,,CLR,0.00,VWS V14.01,2013-11-05 14:10:00,
2013-11-05 06:15:00,51.3,27.2,29.97,NE,56,0.0,0.0,39,0.00,,CLR,0.00,VWS V14.01,2013-11-05 14:15:00,
2013-11-05 06:20:00,51.3,27.2,29.97,NE,55,0.0,0.0,39,0.00,,CLR,0.00,VWS V14.01,2013-11-05 14:20:00,
2013-11-05 06:25:00,51.1,27.0,29.97,NE,55,0.0,0.0,39,0.00,,CLR,0.00,VWS V14.01,2013-11-05 14:25:00,
2013-11-05 06:30:00,51.1,27.0,29.97,NE,55,0.0,0.0,39,0.00,,CLR,0.00,VWS V14.01,2013-11-05 14:30:00,
2013-11-05 06:35:00,51.6,27.5,29.97,NE,55,0.0,0.0,39,0.00,,CLR,0.00,VWS V14.01,2013-11-05 14:35:00,
2013-11-05 06:40:00,51.8,27.0,30.00,NE,55,0.0,0.0,38,0.00,,CLR,0.00,VWS V14.01,2013-11-05 14:40:00,
2013-11-05 06:45:00,51.4,26.7,30.00,NE,55,0.0,0.0,38,0.00,,CLR,0.00,VWS V14.01,2013-11-05 14:45:00,
2013-11-05 06:50:00,51.3,26.5,30.00,NE,55,0.0,0.0,38,0.00,,CLR,0.00,VWS V14.01,2013-11-05 14:50:00,
2013-11-05 06:55:00,51.1,26.4,29.97,NE,55,0.0,0.0,38,0.00,,CLR,0.00,VWS V14.01,2013-11-05 14:55:00,
2013-11-05 07:00:00,51.1,26.4,29.97,NE,56,0.0,0.0,38,0.00,,FEW150,0.00,VWS V14.01,2013-11-05 15:00:00,
2013-11-05 07:05:00,51.3,26.5,29.97,NE,55,0.0,0.0,38,0.00,,FEW150,0.00,VWS V14.01,2013-11-05 15:05:00,
2013-11-05 07:10:00,51.1,26.4,30.00,NE,55,0.0,0.0,38,0.00,,FEW150,0.00,VWS V14.01,2013-11-05 15:10:00,
2013-11-05 07:15:00,51.1,26.4,30.00,NE,55,0.0,0.0,38,0.00,,FEW150,0.00,VWS V14.01,2013-11-05 15:15:00,
2013-11-05 07:20:00,51.1,26.4,30.00,NE,56,0.0,0.0,38,0.00,,FEW150,0.00,VWS V14.01,2013-11-05 15:20:00,
2013-11-05 07:25:00,51.3,27.2,30.00,NE,55,0.0,0.0,39,0.00,,FEW150,0.00,VWS V14.01,2013-11-05 15:25:00,
2013-11-05 07:30:00,51.3,27.2,30.00,NE,55,0.0,0.0,39,0.00,,FEW150,0.00,VWS V14.01,2013-11-05 15:30:00,
2013-11-05 07:35:00,51.8,28.3,30.00,NE,56,0.0,0.0,40,0.00,,FEW150,0.00,VWS V14.01,2013-11-05 15:35:00,
2013-11-05 07:40:00,52.0,29.6,30.00,NE,55,0.0,0.0,42,0.00,,FEW150,0.00,VWS V14.01,2013-11-05 15:40:00,
2013-11-05 07:45:00,52.3,30.5,30.00,NE,55,0.0,0.0,43,0.00,,FEW150,0.00,VWS V14.01,2013-11-05 15:45:00,
2013-11-05 07:50:00,52.7,32.0,30.00,NE,55,0.0,0.0,45,0.00,,FEW150,0.00,VWS V14.01,2013-11-05 15:50:00,
2013-11-05 07:55:00,53.1,32.8,30.00,NE,55,0.0,0.0,46,0.00,,FEW150,0.00,VWS V14.01,2013-11-05 15:55:00,
2013-11-05 08:00:00,53.4,33.2,30.00,NE,55,0.0,0.0,46,0.00,,FEW150,0.00,VWS V14.01,2013-11-05 16:00:00,
2013-11-05 08:05:00,53.6,32.8,30.00,NE,55,0.0,0.0,45,0.00,,FEW150,0.00,VWS V14.01,2013-11-05 16:05:00,
2013-11-05 08:10:00,54.3,32.9,30.00,NE,55,0.0,0.0,44,0.00,,FEW150,0.00,VWS V14.01,2013-11-05 16:10:00,
2013-11-05 08:15:00,54.3,32.3,30.00,NE,55,0.0,0.0,43,0.00,,FEW150,0.00,VWS V14.01,2013-11-05 16:15:00,
2013-11-05 08:20:00,54.3,32.3,30.00,NE,55,0.0,0.0,43,0.00,,FEW150,0.00,VWS V14.01,2013-11-05 16:20:00,
2013-11-05 08:25:00,63.9,36.4,30.00,NE,56,0.0,0.0,36,0.00,,FEW150,0.00,VWS V14.01,2013-11-05 16:25:00,
2013-11-05 08:30:00,64.6,35.6,30.03,NE,55,0.0,0.0,34,0.00,,FEW150,0.00,VWS V14.01,2013-11-05 16:30:00,
2013-11-05 08:35:00,62.2,33.5,30.03,NE,55,0.0,0.0,34,0.00,,FEW150,0.00,VWS V14.01,2013-11-05 16:35:00,
2013-11-05 08:40:00,60.8,33.0,30.03,NE,55,0.0,0.0,35,0.00,,FEW150,0.00,VWS V14.01,2013-11-05 16:40:00,
2013-11-05 08:45:00,59.9,32.9,30.03,NE,55,0.0,0.0,36,0.00,,FEW150,0.00,VWS V14.01,2013-11-05 16:45:00,
2013-11-05 08:50:00,59.4,33.1,30.03,NE,55,0.0,0.0,37,0.00,,FEW150,0.00,VWS V14.01,2013-11-05 16:50:00,
2013-11-05 08:55:00,59.7,34.1,30.03,NE,55,0.0,0.0,38,0.00,,FEW150,0.00,VWS V14.01,2013-11-05 16:55:00,
2013-11-05 09:00:00,65.7,37.3,30.03,NE,55,0.0,0.0,35,0.00,,FEW180,0.00,VWS V14.01,2013-11-05 17:00:00,
2013-11-05 09:05:00,67.8,37.7,30.03,NE,56,0.0,0.0,33,0.00,,FEW180,0.00,VWS V14.01,2013-11-05 17:05:00,
2013-11-05 09:10:00,68.5,37.5,30.03,NE,55,0.0,0.0,32,0.00,,FEW180,0.00,VWS V14.01,2013-11-05 17:10:00,
2013-11-05 09:15:00,66.9,33.7,30.03,ENE,59,0.0,0.0,29,0.00,,FEW180,0.00,VWS V14.01,2013-11-05 17:15:00,
2013-11-05 09:20:00,66.0,32.9,30.03,ENE,59,0.0,0.0,29,0.00,,FEW180,0.00,VWS V14.01,2013-11-05 17:20:00,
2013-11-05 09:25:00,65.1,32.1,30.03,ENE,60,0.0,0.0,29,0.00,,FEW180,0.00,VWS V14.01,2013-11-05 17:25:00,
2013-11-05 09:30:00,64.2,33.0,30.03,ENE,60,0.0,0.0,31,0.00,,FEW180,0.00,VWS V14.01,2013-11-05 17:30:00,
2013-11-05 09:35:00,64.2,33.0,30.03,ENE,60,0.0,0.0,31,0.00,,FEW180,0.00,VWS V14.01,2013-11-05 17:35:00,
2013-11-05 09:40:00,64.2,33.0,30.03,ENE,64,0.0,0.0,31,0.00,,FEW180,0.00,VWS V14.01,2013-11-05 17:40:00,
2013-11-05 09:45:00,62.8,33.3,30.03,ENE,64,0.0,0.0,33,0.00,,FEW180,0.00,VWS V14.01,2013-11-05 17:45:00,
2013-11-05 09:50:00,62.8,33.3,30.03,ESE,104,0.0,0.0,33,0.00,,FEW180,0.00,VWS V14.01,2013-11-05 17:50:00,
2013-11-05 09:55:00,62.6,33.9,30.03,SE,143,0.0,0.0,34,0.00,,FEW180,0.00,VWS V14.01,2013-11-05 17:55:00,
2013-11-05 10:00:00,63.0,33.4,30.03,SE,143,0.0,0.0,33,0.00,,FEW180,0.00,VWS V14.01,2013-11-05 18:00:00,
2013-11-05 10:05:00,63.3,31.4,30.03,ENE,58,0.0,0.0,30,0.00,,FEW180,0.00,VWS V14.01,2013-11-05 18:05:00,
2013-11-05 10:10:00,63.7,32.5,30.03,ENE,58,0.0,0.0,31,0.00,,FEW180,0.00,VWS V14.01,2013-11-05 18:10:00,
2013-11-05 10:15:00,64.0,32.8,30.03,ENE,69,0.0,0.0,31,0.00,,FEW180,0.00,VWS V14.01,2013-11-05 18:15:00,
2013-11-05 10:20:00,65.7,31.7,30.03,ENE,76,0.0,0.0,28,0.00,,FEW180,0.00,VWS V14.01,2013-11-05 18:20:00,
2013-11-05 10:25:00,65.8,31.0,30.03,ESE,108,0.0,0.0,27,0.00,,FEW180,0.00,VWS V14.01,2013-11-05 18:25:00,
2013-11-05 10:30:00,66.7,30.8,30.03,ESE,108,0.0,0.0,26,0.00,,FEW180,0.00,VWS V14.01,2013-11-05 18:30:00,
2013-11-05 10:35:00,66.9,32.8,30.03,ESE,106,0.0,0.0,28,0.00,,FEW180,0.00,VWS V14.01,2013-11-05 18:35:00,
2013-11-05 10:40:00,66.9,33.7,30.03,East,90,0.0,0.0,29,0.00,,FEW180,0.00,VWS V14.01,2013-11-05 18:40:00,
2013-11-05 10:45:00,66.9,34.5,30.03,East,86,0.0,0.0,30,0.00,,FEW180,0.00,VWS V14.01,2013-11-05 18:45:00,
2013-11-05 10:50:00,67.3,33.1,30.03,East,96,0.0,0.0,28,0.00,,FEW180,0.00,VWS V14.01,2013-11-05 18:50:00,
2013-11-05 10:55:00,68.2,33.0,30.03,East,95,0.0,0.0,27,0.00,,FEW180,0.00,VWS V14.01,2013-11-05 18:55:00,
2013-11-05 11:00:00,70.2,30.7,30.03,East,96,0.0,0.0,23,0.00,,FEW180,0.00,VWS V14.01,2013-11-05 19:00:00,
2013-11-05 11:05:00,71.2,31.6,30.03,SSE,160,0.0,0.0,23,0.00,,FEW180,0.00,VWS V14.01,2013-11-05 19:05:00,
2013-11-05 11:10:00,73.0,32.0,30.03,SE,138,0.0,0.0,22,0.00,,FEW180,0.00,VWS V14.01,2013-11-05 19:10:00,
2013-11-05 11:15:00,74.8,32.3,30.03,SE,136,0.0,0.0,21,0.00,,FEW180,0.00,VWS V14.01,2013-11-05 19:15:00,
2013-11-05 11:20:00,77.2,33.0,30.03,SE,136,0.0,0.0,20,0.00,,FEW180,0.00,VWS V14.01,2013-11-05 19:20:00,
2013-11-05 11:25:00,77.2,33.0,30.03,ENE,70,0.0,0.0,20,0.00,,FEW180,0.00,VWS V14.01,2013-11-05 19:25:00,
2013-11-05 11:30:00,81.1,32.2,30.00,ESE,107,0.0,0.0,17,0.00,,FEW180,0.00,VWS V14.01,2013-11-05 19:30:00,
2013-11-05 11:35:00,81.1,32.2,30.00,South,176,0.0,0.0,17,0.00,,FEW180,0.00,VWS V14.01,2013-11-05 19:35:00,
2013-11-05 11:40:00,81.1,32.2,30.00,SSE,166,0.0,0.0,17,0.00,,FEW180,0.00,VWS V14.01,2013-11-05 19:40:00,
2013-11-05 11:45:00,87.4,30.6,30.00,SE,125,0.0,0.0,13,0.00,,FEW180,0.00,VWS V14.01,2013-11-05 19:45:00,
2013-11-05 11:50:00,87.4,30.6,30.00,East,91,0.0,0.0,13,0.00,,FEW180,0.00,VWS V14.01,2013-11-05 19:50:00,
2013-11-05 11:55:00,87.8,34.5,30.00,East,91,0.0,0.0,15,0.00,,FEW180,0.00,VWS V14.01,2013-11-05 19:55:00,
2013-11-05 12:00:00,87.8,34.5,30.00,East,99,0.0,0.0,15,0.00,,FEW180,0.00,VWS V14.01,2013-11-05 20:00:00,
2013-11-05 12:05:00,87.8,34.5,30.00,ESE,108,0.0,0.0,15,0.00,,FEW180,0.00,VWS V14.01,2013-11-05 20:05:00,
2013-11-05 12:10:00,89.8,30.5,30.00,East,96,0.0,0.0,12,0.00,,FEW180,0.00,VWS V14.01,2013-11-05 20:10:00,
2013-11-05 12:15:00,89.8,30.5,30.00,East,96,0.0,0.0,12,0.00,,FEW180,0.00,VWS V14.01,2013-11-05 20:15:00,
2013-11-05 12:20:00,91.8,32.0,30.00,East,96,0.0,0.0,12,0.00,,FEW180,0.00,VWS V14.01,2013-11-05 20:20:00,
2013-11-05 12:25:00,91.8,32.0,30.00,East,98,0.0,0.0,12,0.00,,FEW180,0.00,VWS V14.01,2013-11-05 20:25:00,
2013-11-05 12:30:00,92.8,32.8,30.00,ESE,105,0.0,0.0,12,0.00,,FEW180,0.00,VWS V14.01,2013-11-05 20:30:00,
2013-11-05 12:35:00,93.2,31.0,30.00,East,101,0.0,0.0,11,0.00,,FEW180,0.00,VWS V14.01,2013-11-05 20:35:00,
2013-11-05 12:40:00,93.2,31.0,30.00,ENE,76,0.0,0.0,11,0.00,,FEW180,0.00,VWS V14.01,2013-11-05 20:40:00,
2013-11-05 12:45:00,92.3,32.4,29.97,East,83,0.0,0.0,12,0.00,,FEW180,0.00,VWS V14.01,2013-11-05 20:45:00,
2013-11-05 12:50:00,92.1,32.3,29.97,East,85,0.0,0.0,12,0.00,,FEW180,0.00,VWS V14.01,2013-11-05 20:50:00,
2013-11-05 12:55:00,90.3,30.9,29.97,NE,39,0.0,0.0,12,0.00,,FEW180,0.00,VWS V14.01,2013-11-05 20:55:00,
2013-11-05 13:00:00,90.1,30.7,29.97,ENE,75,0.0,0.0,12,0.00,,FEW180,0.00,VWS V14.01,2013-11-05 21:00:00,
2013-11-05 13:05:00,90.5,31.0,29.97,ENE,75,0.0,0.0,12,0.00,,SCT200,0.00,VWS V14.01,2013-11-05 21:05:00,
2013-11-05 13:10:00,89.2,32.0,29.97,ENE,75,0.0,0.0,13,0.00,,SCT200,0.00,VWS V14.01,2013-11-05 21:10:00,
2013-11-05 13:15:00,88.5,31.5,29.97,East,79,0.0,0.0,13,0.00,,SCT200,0.00,VWS V14.01,2013-11-05 21:15:00,
2013-11-05 13:20:00,87.6,30.8,29.97,NE,56,0.0,0.0,13,0.00,,SCT200,0.00,VWS V14.01,2013-11-05 21:20:00,
2013-11-05 13:25:00,87.6,30.8,29.97,NE,56,0.0,0.0,13,0.00,,SCT200,0.00,VWS V14.01,2013-11-05 21:25:00,
2013-11-05 13:30:00,87.6,30.8,29.97,ENE,64,0.0,0.0,13,0.00,,SCT200,0.00,VWS V14.01,2013-11-05 21:30:00,
2013-11-05 13:35:00,87.6,30.8,29.97,ENE,62,0.0,0.0,13,0.00,,SCT200,0.00,VWS V14.01,2013-11-05 21:35:00,
2013-11-05 13:40:00,87.6,30.8,29.97,ENE,74,0.0,0.0,13,0.00,,SCT200,0.00,VWS V14.01,2013-11-05 21:40:00,
2013-11-05 13:45:00,87.6,30.8,29.97,ENE,75,0.0,0.0,13,0.00,,SCT200,0.00,VWS V14.01,2013-11-05 21:45:00,
2013-11-05 13:50:00,90.7,31.2,29.97,ENE,68,0.0,0.0,12,0.00,,SCT200,0.00,VWS V14.01,2013-11-05 21:50:00,
2013-11-05 13:55:00,91.2,31.6,29.97,ENE,72,0.0,0.0,12,0.00,,SCT200,0.00,VWS V14.01,2013-11-05 21:55:00,
2013-11-05 14:00:00,93.7,31.4,29.97,ENE,78,0.0,0.0,11,0.00,,SCT200,0.00,VWS V14.01,2013-11-05 22:00:00,
2013-11-05 14:05:00,91.6,31.9,29.97,NE,54,0.0,0.0,12,0.00,,BKN200,0.00,VWS V14.01,2013-11-05 22:05:00,
2013-11-05 14:10:00,91.6,31.9,29.97,South,172,0.0,0.0,12,0.00,,BKN200,0.00,VWS V14.01,2013-11-05 22:10:00,
2013-11-05 14:15:00,90.7,31.2,29.97,ENE,78,0.0,0.0,12,0.00,,BKN200,0.00,VWS V14.01,2013-11-05 22:15:00,
2013-11-05 14:20:00,89.8,30.5,29.97,ENE,66,0.0,0.0,12,0.00,,BKN200,0.00,VWS V14.01,2013-11-05 22:20:00,
2013-11-05 14:25:00,89.8,30.5,29.97,ENE,67,0.0,0.0,12,0.00,,BKN200,0.00,VWS V14.01,2013-11-05 22:25:00,
2013-11-05 14:30:00,88.5,31.5,29.97,ENE,67,0.0,0.0,13,0.00,,BKN200,0.00,VWS V14.01,2013-11-05 22:30:00,
2013-11-05 14:35:00,88.3,31.3,29.97,ENE,59,0.0,0.0,13,0.00,,BKN200,0.00,VWS V14.01,2013-11-05 22:35:00,
2013-11-05 14:40:00,88.3,31.3,29.97,SSE,168,0.0,0.0,13,0.00,,BKN200,0.00,VWS V14.01,2013-11-05 22:40:00,
2013-11-05 14:45:00,86.5,29.9,29.97,SW,229,0.0,0.0,13,0.00,,BKN200,0.00,VWS V14.01,2013-11-05 22:45:00,
2013-11-05 14:50:00,85.3,28.9,29.97,SSW,200,0.0,0.0,13,0.00,,BKN200,0.00,VWS V14.01,2013-11-05 22:50:00,
2013-11-05 14:55:00,85.8,29.4,29.97,South,186,0.0,0.0,13,0.00,,BKN200,0.00,VWS V14.01,2013-11-05 22:55:00,
2013-11-05 15:00:00,84.9,28.6,29.97,South,174,0.0,0.0,13,0.00,,BKN200,0.00,VWS V14.01,2013-11-05 23:00:00,
2013-11-05 15:05:00,85.6,29.2,29.97,SSW,195,0.0,0.0,13,0.00,,SCT200,0.00,VWS V14.01,2013-11-05 23:05:00,
2013-11-05 15:10:00,86.5,29.9,29.97,SW,231,0.0,0.0,13,0.00,,SCT200,0.00,VWS V14.01,2013-11-05 23:10:00,
2013-11-05 15:15:00,86.9,30.2,29.97,SW,219,0.0,0.0,13,0.00,,SCT200,0.00,VWS V14.01,2013-11-05 23:15:00,
2013-11-05 15:20:00,86.2,29.6,29.97,South,191,0.0,0.0,13,0.00,,SCT200,0.00,VWS V14.01,2013-11-05 23:20:00,
2013-11-05 15:25:00,85.8,29.4,29.97,SW,224,0.0,0.0,13,0.00,,SCT200,0.00,VWS V14.01,2013-11-05 23:25:00,
2013-11-05 15:30:00,86.2,29.6,29.97,ENE,76,0.0,0.0,13,0.00,,SCT200,0.00,VWS V14.01,2013-11-05 23:30:00,
2013-11-05 15:35:00,85.5,29.1,29.97,SW,226,0.0,0.0,13,0.00,,SCT200,0.00,VWS V14.01,2013-11-05 23:35:00,
2013-11-05 15:39:00,85.8,29.4,29.97,SSW,211,0.0,0.0,13,0.00,,SCT200,0.00,VWS V14.01,2013-11-05 23:39:00,
2013-11-05 15:44:00,86.9,30.2,29.97,SSW,211,0.0,0.0,13,0.00,,SCT200,0.00,VWS V14.01,2013-11-05 23:44:00,
2013-11-05 15:49:00,87.1,30.3,29.97,South,185,0.0,0.0,13,0.00,,SCT200,0.00,VWS V14.01,2013-11-05 23:49:00,
2013-11-05 15:54:00,85.8,29.4,29.97,South,185,0.0,0.0,13,0.00,,SCT200,0.00,VWS V14.01,2013-11-05 23:54:00,
2013-11-05 15:59:00,84.6,28.4,29.97,South,185,0.0,0.0,13,0.00,,SCT200,0.00,VWS V14.01,2013-11-05 23:59:00,
2013-11-05 16:04:00,82.6,28.6,29.97,South,185,0.0,0.0,14,0.00,,SCT200,0.00,VWS V14.01,2013-11-06 00:04:00,
2013-11-05 16:09:00,80.6,27.0,29.97,ESE,108,0.0,0.0,14,0.00,,SCT200,0.00,VWS V14.01,2013-11-06 00:09:00,
2013-11-05 16:14:00,79.9,28.1,29.97,ESE,108,0.0,0.0,15,0.00,,SCT200,0.00,VWS V14.01,2013-11-06 00:14:00,
2013-11-05 16:19:00,78.8,30.4,29.97,ESE,108,0.0,0.0,17,0.00,,SCT200,0.00,VWS V14.01,2013-11-06 00:19:00,
2013-11-05 16:24:00,77.7,30.9,29.94,ESE,108,0.0,0.0,18,0.00,,SCT200,0.00,VWS V14.01,2013-11-06 00:24:00,
2013-11-05 16:29:00,77.5,30.7,29.94,ESE,108,0.0,0.0,18,0.00,,SCT200,0.00,VWS V14.01,2013-11-06 00:29:00,
2013-11-05 16:34:00,77.7,30.9,29.94,ESE,108,0.0,0.0,18,0.00,,SCT200,0.00,VWS V14.01,2013-11-06 00:34:00,
2013-11-05 16:39:00,77.4,30.6,29.94,ESE,109,0.0,0.0,18,0.00,,SCT200,0.00,VWS V14.01,2013-11-06 00:39:00,
2013-11-05 16:44:00,76.6,30.0,29.94,ESE,109,0.0,0.0,18,0.00,,SCT200,0.00,VWS V14.01,2013-11-06 00:44:00,
2013-11-05 16:49:00,75.7,31.9,29.94,ESE,110,0.0,0.0,20,0.00,,SCT200,0.00,VWS V14.01,2013-11-06 00:49:00,
2013-11-05 16:54:00,72.5,30.4,29.97,ESE,109,0.0,0.0,21,0.00,,SCT200,0.00,VWS V14.01,2013-11-06 00:54:00,
2013-11-05 16:59:00,72.3,30.2,29.97,ESE,110,0.0,0.0,21,0.00,,SCT200,0.00,VWS V14.01,2013-11-06 00:59:00,
2013-11-05 17:04:00,69.4,29.0,29.97,ESE,110,0.0,0.0,22,0.00,,FEW200,0.00,VWS V14.01,2013-11-06 01:04:00,
2013-11-05 17:09:00,68.5,25.9,29.97,ESE,110,0.0,0.0,20,0.00,,FEW200,0.00,VWS V14.01,2013-11-06 01:09:00,
2013-11-05 17:14:00,68.4,25.8,29.97,ESE,109,0.0,0.0,20,0.00,,FEW200,0.00,VWS V14.01,2013-11-06 01:14:00,
2013-11-05 17:19:00,67.6,25.2,29.97,ESE,114,0.0,0.0,20,0.00,,FEW200,0.00,VWS V14.01,2013-11-06 01:19:00,
2013-11-05 17:24:00,66.9,24.6,29.97,SSW,192,0.0,0.0,20,0.00,,FEW200,0.00,VWS V14.01,2013-11-06 01:24:00,
2013-11-05 17:29:00,66.4,24.1,29.97,SSW,192,0.0,0.0,20,0.00,,FEW200,0.00,VWS V14.01,2013-11-06 01:29:00,
2013-11-05 17:34:00,66.0,21.3,29.97,SSW,192,0.0,0.0,18,0.00,,FEW200,0.00,VWS V14.01,2013-11-06 01:34:00,
2013-11-05 17:39:00,65.8,21.2,29.97,SSW,192,0.0,0.0,18,0.00,,FEW200,0.00,VWS V14.01,2013-11-06 01:39:00,
2013-11-05 17:44:00,65.3,23.2,29.97,SSW,192,0.0,0.0,20,0.00,,FEW200,0.00,VWS V14.01,2013-11-06 01:44:00,
2013-11-05 17:49:00,65.3,23.2,29.97,SSW,192,0.0,0.0,20,0.00,,FEW200,0.00,VWS V14.01,2013-11-06 01:49:00,
2013-11-05 17:54:00,65.1,23.1,29.97,SSW,192,0.0,0.0,20,0.00,,FEW200,0.00,VWS V14.01,2013-11-06 01:54:00,
2013-11-05 17:59:00,64.9,20.4,29.97,SSW,192,0.0,0.0,18,0.00,,FEW200,0.00,VWS V14.01,2013-11-06 01:59:00,
2013-11-05 18:04:00,64.8,20.3,29.97,SSW,192,0.0,0.0,18,0.00,,FEW200,0.00,VWS V14.01,2013-11-06 02:04:00,
2013-11-05 18:09:00,64.4,20.0,29.97,SSW,192,0.0,0.0,18,0.00,,FEW200,0.00,VWS V14.01,2013-11-06 02:09:00,
2013-11-05 18:14:00,64.0,23.3,29.97,SSW,192,0.0,0.0,21,0.00,,FEW200,0.00,VWS V14.01,2013-11-06 02:14:00,
2013-11-05 18:19:00,63.1,22.6,29.97,SSW,192,0.0,0.0,21,0.00,,FEW200,0.00,VWS V14.01,2013-11-06 02:19:00,
2013-11-05 18:24:00,62.2,25.0,29.97,SSW,192,0.0,0.0,24,0.00,,FEW200,0.00,VWS V14.01,2013-11-06 02:24:00,
2013-11-05 18:29:00,61.7,24.6,29.97,SSW,192,0.0,0.0,24,0.00,,FEW200,0.00,VWS V14.01,2013-11-06 02:29:00,
2013-11-05 18:34:00,61.7,24.6,29.97,SSW,192,0.0,0.0,24,0.00,,FEW200,0.00,VWS V14.01,2013-11-06 02:34:00,
2013-11-05 18:39:00,61.0,24.9,30.00,SSW,192,0.0,0.0,25,0.00,,FEW200,0.00,VWS V14.01,2013-11-06 02:39:00,
2013-11-05 18:44:00,61.0,25.9,30.00,SSW,192,0.0,0.0,26,0.00,,FEW200,0.00,VWS V14.01,2013-11-06 02:44:00,
2013-11-05 18:49:00,60.6,25.6,30.00,SSW,192,0.0,0.0,26,0.00,,FEW200,0.00,VWS V14.01,2013-11-06 02:49:00,
2013-11-05 18:54:00,60.3,26.2,30.00,SSW,192,0.0,0.0,27,0.00,,FEW200,0.00,VWS V14.01,2013-11-06 02:54:00,
2013-11-05 18:59:00,60.3,26.2,30.00,SSW,192,0.0,0.0,27,0.00,,FEW200,0.00,VWS V14.01,2013-11-06 02:59:00,
2013-11-05 19:04:00,59.7,24.8,30.00,SSW,192,0.0,0.0,26,0.00,,CLR,0.00,VWS V14.01,2013-11-06 03:04:00,
2013-11-05 19:09:00,59.9,25.0,30.00,SSW,192,0.0,0.0,26,0.00,,CLR,0.00,VWS V14.01,2013-11-06 03:09:00,
2013-11-05 19:14:00,59.9,25.0,30.00,SSW,192,0.0,0.0,26,0.00,,CLR,0.00,VWS V14.01,2013-11-06 03:14:00,
2013-11-05 19:19:00,60.1,24.2,30.00,SSW,192,0.0,0.0,25,0.00,,CLR,0.00,VWS V14.01,2013-11-06 03:19:00,
2013-11-05 19:24:00,60.1,24.2,30.00,SSW,192,0.0,0.0,25,0.00,,CLR,0.00,VWS V14.01,2013-11-06 03:24:00,
2013-11-05 19:29:00,60.4,24.5,30.00,SSW,192,0.0,0.0,25,0.00,,CLR,0.00,VWS V14.01,2013-11-06 03:29:00,
2013-11-05 19:34:00,60.6,24.6,30.00,SSW,192,0.0,0.0,25,0.00,,CLR,0.00,VWS V14.01,2013-11-06 03:34:00,
2013-11-05 19:39:00,60.6,24.6,30.00,SSW,192,0.0,0.0,25,0.00,,CLR,0.00,VWS V14.01,2013-11-06 03:39:00,
2013-11-05 19:44:00,60.6,24.6,30.00,SSW,192,0.0,0.0,25,0.00,,CLR,0.00,VWS V14.01,2013-11-06 03:44:00,
2013-11-05 19:49:00,61.2,25.1,30.00,SSW,192,0.0,0.0,25,0.00,,CLR,0.00,VWS V14.01,2013-11-06 03:49:00,
2013-11-05 19:54:00,60.4,24.5,30.00,SSW,192,0.0,0.0,25,0.00,,CLR,0.00,VWS V14.01,2013-11-06 03:54:00,
2013-11-05 19:59:00,60.3,24.3,30.00,SSW,192,0.0,0.0,25,0.00,,CLR,0.00,VWS V14.01,2013-11-06 03:59:00,
2013-11-05 20:04:00,59.7,23.9,30.00,SSW,192,0.0,0.0,25,0.00,,CLR,0.00,VWS V14.01,2013-11-06 04:04:00,
2013-11-05 20:09:00,59.7,23.9,30.00,SSW,192,0.0,0.0,25,0.00,,CLR,0.00,VWS V14.01,2013-11-06 04:09:00,
2013-11-05 20:14:00,59.0,23.2,30.00,SSW,192,0.0,0.0,25,0.00,,CLR,0.00,VWS V14.01,2013-11-06 04:14:00,
2013-11-05 20:19:00,59.0,23.2,30.00,SSW,192,0.0,0.0,25,0.00,,CLR,0.00,VWS V14.01,2013-11-06 04:19:00,
2013-11-05 20:24:00,58.8,23.1,30.00,SSW,192,0.0,0.0,25,0.00,,CLR,0.00,VWS V14.01,2013-11-06 04:24:00,
2013-11-05 20:29:00,58.1,22.5,30.00,SSW,192,0.0,0.0,25,0.00,,CLR,0.00,VWS V14.01,2013-11-06 04:29:00,
2013-11-05 20:34:00,58.1,22.5,30.00,SSW,192,0.0,0.0,25,0.00,,CLR,0.00,VWS V14.01,2013-11-06 04:34:00,
2013-11-05 20:39:00,57.7,23.1,30.03,SSW,192,0.0,0.0,26,0.00,,CLR,0.00,VWS V14.01,2013-11-06 04:39:00,
2013-11-05 20:44:00,57.7,23.1,30.03,SSW,192,0.0,0.0,26,0.00,,CLR,0.00,VWS V14.01,2013-11-06 04:44:00,
2013-11-05 20:49:00,57.7,23.1,30.03,SSW,192,0.0,0.0,26,0.00,,CLR,0.00,VWS V14.01,2013-11-06 04:49:00,
2013-11-05 20:54:00,57.7,23.1,30.03,SSW,192,0.0,0.0,26,0.00,,CLR,0.00,VWS V14.01,2013-11-06 04:54:00,
2013-11-05 20:59:00,58.3,23.6,30.03,SSW,192,0.0,0.0,26,0.00,,CLR,0.00,VWS V14.01,2013-11-06 04:59:00,
2013-11-05 21:01:00,58.3,23.6,30.03,SSW,192,0.0,0.0,26,0.00,,CLR,0.00,VWS V14.01,2013-11-06 05:01:00,
2013-11-05 21:06:00,57.9,22.3,30.03,SSW,192,0.0,0.0,25,0.00,,CLR,0.00,VWS V14.01,2013-11-06 05:06:00,
2013-11-05 21:11:00,57.6,22.0,30.03,SSW,192,0.0,0.0,25,0.00,,CLR,0.00,VWS V14.01,2013-11-06 05:11:00,
2013-11-05 21:16:00,57.4,21.9,30.03,SSW,192,0.0,0.0,25,0.00,,CLR,0.00,VWS V14.01,2013-11-06 05:16:00,
2013-11-05 21:21:00,57.4,21.9,30.03,SSW,192,0.0,0.0,25,0.00,,CLR,0.00,VWS V14.01,2013-11-06 05:21:00,
2013-11-05 21:26:00,57.4,21.9,30.03,SSW,192,0.0,0.0,25,0.00,,CLR,0.00,VWS V14.01,2013-11-06 05:26:00,
2013-11-05 21:31:00,57.0,22.5,30.03,SSW,192,0.0,0.0,26,0.00,,CLR,0.00,VWS V14.01,2013-11-06 05:31:00,
2013-11-05 21:36:00,57.0,22.5,30.03,SSW,192,0.0,0.0,26,0.00,,CLR,0.00,VWS V14.01,2013-11-06 05:36:00,
2013-11-05 21:41:00,57.0,22.5,30.03,SSW,192,0.0,0.0,26,0.00,,CLR,0.00,VWS V14.01,2013-11-06 05:41:00,
2013-11-05 21:46:00,56.7,22.2,30.03,SSW,192,0.0,0.0,26,0.00,,CLR,0.00,VWS V14.01,2013-11-06 05:46:00,
2013-11-05 21:51:00,56.5,22.0,30.03,SSW,192,0.0,0.0,26,0.00,,CLR,0.00,VWS V14.01,2013-11-06 05:51:00,
2013-11-05 21:56:00,56.3,21.9,30.03,SSW,192,0.0,0.0,26,0.00,,CLR,0.00,VWS V14.01,2013-11-06 05:56:00,
2013-11-05 22:01:00,56.3,21.9,30.03,SSW,192,0.0,0.0,26,0.00,,CLR,0.00,VWS V14.01,2013-11-06 06:01:00,
2013-11-05 22:06:00,56.3,22.8,30.03,SSW,192,0.0,0.0,27,0.00,,CLR,0.00,VWS V14.01,2013-11-06 06:06:00,
2013-11-05 22:11:00,56.3,22.8,30.06,SSW,192,0.0,0.0,27,0.00,,CLR,0.00,VWS V14.01,2013-11-06 06:11:00,
2013-11-05 22:16:00,56.3,22.8,30.06,SSW,192,0.0,0.0,27,0.00,,CLR,0.00,VWS V14.01,2013-11-06 06:16:00,
2013-11-05 22:21:00,56.1,22.6,30.06,SSW,192,0.0,0.0,27,0.00,,CLR,0.00,VWS V14.01,2013-11-06 06:21:00,
2013-11-05 22:26:00,56.1,22.6,30.06,SSW,192,0.0,0.0,27,0.00,,CLR,0.00,VWS V14.01,2013-11-06 06:26:00,
2013-11-05 22:31:00,55.8,22.3,30.06,SSW,192,0.0,0.0,27,0.00,,CLR,0.00,VWS V14.01,2013-11-06 06:31:00,
2013-11-05 22:36:00,55.8,22.3,30.06,SSW,192,0.0,0.0,27,0.00,,CLR,0.00,VWS V14.01,2013-11-06 06:36:00,
2013-11-05 22:41:00,55.4,22.0,30.06,SSW,192,0.0,0.0,27,0.00,,CLR,0.00,VWS V14.01,2013-11-06 06:41:00,
2013-11-05 22:46:00,55.2,22.7,30.06,SSW,192,0.0,0.0,28,0.00,,CLR,0.00,VWS V14.01,2013-11-06 06:46:00,
2013-11-05 22:51:00,54.9,22.4,30.06,SSW,192,0.0,0.0,28,0.00,,CLR,0.00,VWS V14.01,2013-11-06 06:51:00,
2013-11-05 22:56:00,54.9,22.4,30.06,SSW,192,0.0,0.0,28,0.00,,CLR,0.00,VWS V14.01,2013-11-06 06:56:00,
2013-11-05 23:01:00,54.9,23.2,30.06,SSW,192,0.0,0.0,29,0.00,,CLR,0.00,VWS V14.01,2013-11-06 07:01:00,
2013-11-05 23:06:00,54.9,23.2,30.06,SSW,192,0.0,0.0,29,0.00,,CLR,0.00,VWS V14.01,2013-11-06 07:06:00,
2013-11-05 23:11:00,54.9,23.2,30.06,SSW,192,0.0,0.0,29,0.00,,CLR,0.00,VWS V14.01,2013-11-06 07:11:00,
2013-11-05 23:16:00,54.9,24.0,30.06,SSW,192,0.0,0.0,30,0.00,,CLR,0.00,VWS V14.01,2013-11-06 07:16:00,
2013-11-05 23:21:00,54.9,24.0,30.06,SSW,192,0.0,0.0,30,0.00,,CLR,0.00,VWS V14.01,2013-11-06 07:21:00,
2013-11-05 23:26:00,55.0,24.2,30.06,SSW,192,0.0,0.0,30,0.00,,CLR,0.00,VWS V14.01,2013-11-06 07:26:00,
2013-11-05 23:31:00,55.0,24.2,30.06,SSW,192,0.0,0.0,30,0.00,,CLR,0.00,VWS V14.01,2013-11-06 07:31:00,
2013-11-05 23:36:00,55.0,24.2,30.03,SSW,192,0.0,0.0,30,0.00,,CLR,0.00,VWS V14.01,2013-11-06 07:36:00,
2013-11-05 23:41:00,55.4,23.7,30.03,SSW,192,0.0,0.0,29,0.00,,CLR,0.00,VWS V14.01,2013-11-06 07:41:00,
2013-11-05 23:46:00,55.6,23.9,30.03,SSW,192,0.0,0.0,29,0.00,,CLR,0.00,VWS V14.01,2013-11-06 07:46:00,
2013-11-05 23:51:00,55.8,24.0,30.03,SSW,192,0.0,0.0,29,0.00,,CLR,0.00,VWS V14.01,2013-11-06 07:51:00,
2013-11-05 23:56:00,55.8,24.0,30.03,SSW,192,0.0,0.0,29,0.00,,CLR,0.00,VWS V14.01,2013-11-06 07:56:00,